[[{"header":{"parameterUnit":"m.s-1","parameterCategory":1,"la1":30.2991,"la2":30.254,"lo1":-89.0895,"lo2":-89.0444,"dy":0.0017,"dx":0.0017,"nx":28,"ny":28,"refTime":"2023-10-20T03:00:00:Z","depth":0,"parameterNumber":2,"parameterNumberName":"U-component_of_WINDS"},"data":[0,0,0,0,0,0,0,0,0,0,0,0,0,0,0,0,0,0,0,0,0,0,0,0,0,0,0,0,0,0,0,0,0,0,0,0,0,0,0,0,0,0,0,0,0,0,0,0,0,0,0,0,0,0,0,0,0,0,0.7663,0.7664,0,0.7746,0.7747,0.7748,0.7754,0.7753,0.7752,0.7751,0.7834,0.7837,0.784,0,0,0,0,0,0,0,0,0,0,0,0,0,0.7506,0.7509,0.7663,0.7664,0.7665,0.7746,0.7747,0.7748,0.7754,0.7753,0.7752,0.7751,0.7833,0.7836,0.784,0,0,0,0,0,0,0,0,0,0,0,0,0,0.758,0.751,0.7662,0.7677,0.768,0.7746,0.7747,0.7748,0.7754,0.7753,0.7751,0.775,0.7831,0.7836,0.784,0.7896,0,0,0.7854,0.7856,0,0,0,0,0,0,0,0,0.7576,0.7586,0.7674,0.7677,0.7679,0.7738,0.7722,0.7798,0.7754,0.7726,0.7751,0.7749,0.7803,0.781,0.7828,0.79,0.7904,0.7855,0.7858,0.786,0.7861,0,0,0,0,0,0,0,0.7571,0.7583,0.7695,0.7675,0.7678,0.7679,0.7688,0.7737,0.7771,0.7728,0.7729,0.7739,0.7804,0.7824,0.783,0.7905,0.7855,0.7859,0.7862,0.7863,0.8028,0.8029,0,0,0,0,0,0,0.7563,0.7578,0.7693,0.7698,0.7623,0.7683,0.7693,0.772,0.777,0.7777,0.774,0.7739,0.7817,0.7825,0.7833,0.7903,0.786,0.7864,0.7866,0.8026,0.8028,0.803,0,0,0,0,0,0,0.756,0.7574,0.7689,0.7638,0.7653,0.7687,0.7718,0.7723,0.7743,0.7779,0.7785,0.7754,0.7816,0.7827,0.7881,0.7906,0.7866,0.787,0.8024,0.8027,0.8029,0.8042,0,0,0,0,0,0,0.7556,0.7572,0.7594,0.7639,0.7656,0.7737,0.7719,0.7725,0.7751,0.775,0.7794,0.78,0.7816,0.7874,0.7885,0.7911,0.7874,0.8022,0.8025,0.8028,0.8039,0.8044,0.8049,0,0,0,0,0,0.755,0.7594,0.7595,0.7609,0.7684,0.7738,0.7748,0.7765,0.7753,0.7775,0.7799,0.7799,0.7901,0.788,0.7892,0.792,0.8021,0.8025,0.8028,0.8037,0.8043,0.8049,0,0,0,0,0,0,0.755,0.76,0.7602,0.7662,0.7696,0.7739,0.7767,0.7771,0.7808,0.7806,0.7826,0.7836,0.789,0.791,0.7885,0.7977,0.7959,0.7966,0.7962,0.7968,0.7973,0.7967,0.7877,0,0,0,0,0,0.7557,0.7597,0.7638,0.7687,0.7704,0.7733,0.7757,0.7768,0.7803,0.7817,0.7845,0.7879,0.7918,0.7944,0.7983,0.8042,0.8052,0.8067,0.8072,0.8076,0.8081,0.8115,0.8123,0.8042,0.8042,0.8042,0,0,0.7571,0.7604,0.7628,0.7688,0.7715,0.7756,0.7745,0.7788,0.7818,0.7823,0.7877,0.7898,0.7937,0.7995,0.8021,0.8014,0.8106,0.808,0.8083,0.8087,0.812,0.8127,0.8134,0.8044,0.8044,0.8044,0,0,0.7619,0.7648,0.7692,0.772,0.7763,0.7782,0.7792,0.7835,0.785,0.7905,0.791,0.7946,0.8014,0.8042,0.8065,0.8125,0.8126,0.8136,0.8161,0.8194,0.82,0.8206,0.8228,0.8236,0.8142,0.8142,0.8142,0,0.7632,0.7695,0.7714,0.7758,0.7784,0.7792,0.7837,0.7863,0.7915,0.7933,0.7924,0.801,0.8037,0.8102,0.8117,0.8135,0.8148,0.8132,0.8198,0.8204,0.821,0.8231,0.8239,0.8143,0.8143,0.8143,0.8142,0,0.7709,0.7752,0.7782,0.7835,0.7864,0.7908,0.7934,0.7961,0.797,0.799,0.8045,0.8078,0.8124,0.814,0.8148,0.8206,0.82,0.8194,0.8177,0.8218,0.8239,0.8247,0.8144,0.8144,0.8144,0.8143,0,0,0.7758,0.7822,0.7833,0.7857,0.7905,0.7938,0.7983,0.8029,0.8053,0.8089,0.8127,0.8185,0.818,0.8206,0.8217,0.8246,0.8293,0.8237,0.8238,0.8247,0.836,0.8365,0.8374,0.8294,0.8296,0.8297,0.8357,0,0.7812,0.7893,0.7912,0.7981,0.8022,0.803,0.8069,0.8102,0.8122,0.8159,0.8181,0.8222,0.8212,0.8228,0.8257,0.8281,0.8316,0.8277,0.833,0.8331,0.8321,0.8385,0.839,0.8445,0.8365,0.8367,0.8368,0,0.7886,0.7925,0.7999,0.8043,0.8061,0.8095,0.814,0.8175,0.8213,0.8226,0.8256,0.8264,0.8311,0.8291,0.8356,0.8329,0.8351,0.8366,0.8369,0.8375,0.8352,0.8393,0.8463,0.8471,0.838,0.8379,0.8378,0,0.7916,0.7987,0.8041,0.8061,0.8114,0.8138,0.8161,0.8198,0.8225,0.8263,0.8281,0.8323,0.8347,0.838,0.84,0.8384,0.8463,0.8445,0.8475,0.8475,0.8492,0.8491,0.8567,0.8505,0.8505,0.8505,0.8505,0,0.7974,0.8019,0.8055,0.8088,0.8139,0.816,0.821,0.8232,0.8265,0.8303,0.8312,0.8346,0.837,0.8408,0.8424,0.8476,0.8486,0.8498,0.8501,0.8497,0.8496,0.8513,0.851,0.8507,0.8507,0.8506,0.8506,0,0.8017,0.8043,0.8102,0.8147,0.816,0.8195,0.8234,0.8266,0.8286,0.8334,0.8346,0.8378,0.8423,0.8446,0.8502,0.8513,0.8572,0.8573,0.8559,0.8561,0.8591,0.8588,0.8681,0.8695,0.8623,0.8623,0.8624,0,0.8053,0.8088,0.8138,0.8164,0.8188,0.823,0.8258,0.828,0.8309,0.8356,0.8382,0.8429,0.8467,0.8539,0.8567,0.861,0.8612,0.8642,0.8619,0.8614,0.8614,0.8612,0.8616,0.8646,0.8647,0.8647,0.8648,0,0.8114,0.8126,0.8167,0.8212,0.8246,0.8283,0.8319,0.834,0.8368,0.8399,0.8447,0.8477,0.8535,0.8581,0.8626,0.8649,0.8653,0.8655,0.8665,0.8661,0.8652,0.8659,0.8572,0.8653,0.8652,0.8652,0.8652,0.8652,0.8155,0.8187,0.8228,0.8273,0.8303,0.8337,0.837,0.8396,0.8436,0.8486,0.8496,0.8547,0.8585,0.8647,0.8671,0.871,0.8704,0.8717,0.8721,0.8724,0.8726,0.8646,0.8718,0.8718,0.8718,0.8718,0.8718,0,0.8218,0.8245,0.8287,0.8338,0.8374,0.8376,0.8416,0.8446,0.8491,0.8526,0.8564,0.8619,0.8664,0.8696,0.8741,0.8767,0.877,0.8778,0.8777,0.8782,0.8729,0.8716,0.8775,0.8775,0.8775,0.8775,0.8775,0.8775,0.8255,0.831,0.8326,0.8397,0.8423,0.8473,0.8496,0.8528,0.8557,0.8618,0.8656,0.8677,0.8711,0.8759,0.8801,0.8809,0.8826,0.8834,0.8842,0.8792,0.8786,0.878,0.8769,0.8837,0.8837,0.8893,0.8893,0.8894]},{"header":{"parameterUnit":"m.s-1","parameterCategory":1,"la1":30.2991,"la2":30.254,"lo1":-89.0895,"lo2":-89.0444,"dy":0.0017,"dx":0.0017,"nx":28,"ny":28,"refTime":"2023-10-20T03:00:00:Z","depth":0,"parameterNumber":3,"parameterNumberName":"V-component_of_WINDS"},"data":[0,0,0,0,0,0,0,0,0,0,0,0,0,0,0,0,0,0,0,0,0,0,0,0,0,0,0,0,0,0,0,0,0,0,0,0,0,0,0,0,0,0,0,0,0,0,0,0,0,0,0,0,0,0,0,0,0,0,4.2746,4.2745,0,4.2702,4.2701,4.2701,4.2568,4.2565,4.2562,4.2559,4.2517,4.2519,4.252,0,0,0,0,0,0,0,0,0,0,0,0,0,4.2718,4.272,4.2746,4.2745,4.2744,4.2702,4.2701,4.27,4.2568,4.2565,4.2561,4.2558,4.2517,4.2518,4.252,0,0,0,0,0,0,0,0,0,0,0,0,0,4.2708,4.272,4.2746,4.2673,4.2666,4.2702,4.2701,4.27,4.2569,4.2565,4.256,4.2556,4.2516,4.2518,4.2521,4.2623,0,0,4.2528,4.2529,0,0,0,0,0,0,0,0,4.2709,4.2709,4.2684,4.2678,4.2671,4.2636,4.2676,4.2675,4.257,4.2606,4.2559,4.2554,4.256,4.2559,4.256,4.2621,4.262,4.2528,4.253,4.2531,4.2531,0,0,0,0,0,0,0,4.271,4.271,4.2728,4.2684,4.2676,4.2644,4.2638,4.2675,4.2609,4.2603,4.2593,4.2589,4.2556,4.2558,4.2558,4.2619,4.2528,4.253,4.2532,4.2533,4.2764,4.2768,0,0,0,0,0,0,4.272,4.2712,4.273,4.2727,4.2679,4.2648,4.2641,4.2651,4.2608,4.2597,4.2593,4.2583,4.2556,4.2556,4.2556,4.2674,4.2531,4.2533,4.2534,4.2759,4.2765,4.277,0,0,0,0,0,0,4.272,4.2723,4.2731,4.2717,4.2715,4.2653,4.2666,4.2653,4.2655,4.26,4.2588,4.2608,4.2553,4.2553,4.2608,4.2671,4.2534,4.2536,4.2753,4.2761,4.2767,4.2911,0,0,0,0,0,0,4.272,4.2724,4.2761,4.2718,4.2717,4.2783,4.267,4.2655,4.2659,4.2646,4.2611,4.2601,4.2549,4.2605,4.261,4.2672,4.2538,4.2747,4.2757,4.2765,4.2901,4.2922,4.2941,0,0,0,0,0,4.272,4.2804,4.2764,4.2767,4.2762,4.2787,4.2786,4.2724,4.2665,4.2703,4.2668,4.2602,4.2663,4.2612,4.2616,4.268,4.2743,4.2754,4.2764,4.2891,4.2918,4.294,0,0,0,0,0,0,4.2857,4.2797,4.2752,4.2825,4.2812,4.2764,4.281,4.2754,4.2758,4.2745,4.2669,4.2663,4.2729,4.2709,4.2653,4.2778,4.2692,4.2705,4.2788,4.2812,4.2832,4.2835,4.254,0,0,0,0,0,4.2895,4.2919,4.2866,4.2936,4.2932,4.2873,4.2881,4.2834,4.2818,4.2812,4.2781,4.2769,4.2785,4.2798,4.281,4.2897,4.2888,4.2943,4.2964,4.298,4.2992,4.3038,4.3062,4.2804,4.2804,4.2804,0,0,4.2975,4.2946,4.2966,4.2963,4.2947,4.2975,4.2869,4.2902,4.2923,4.2817,4.2867,4.2845,4.2826,4.2898,4.2928,4.2884,4.3061,4.2994,4.3008,4.301,4.3051,4.3076,4.3098,4.2812,4.281,4.2809,0,0,4.3136,4.3116,4.3171,4.3158,4.3136,4.3096,4.311,4.3071,4.3052,4.3101,4.3023,4.3046,4.3076,4.3066,4.3065,4.3224,4.3164,4.323,4.3336,4.3381,4.3402,4.3419,4.3477,4.3498,4.3241,4.3242,4.3242,0,4.3238,4.3276,4.3208,4.3247,4.3248,4.3154,4.3211,4.3202,4.3186,4.3189,4.314,4.3176,4.3157,4.3226,4.3265,4.3267,4.3281,4.3233,4.3404,4.3421,4.3437,4.3491,4.3512,4.325,4.3249,4.3248,4.3247,0,4.3404,4.3432,4.348,4.3466,4.3473,4.3521,4.3461,4.3476,4.343,4.3396,4.3448,4.3422,4.3427,4.344,4.3395,4.3504,4.3477,4.3418,4.333,4.3471,4.352,4.354,4.3262,4.3259,4.3256,4.3254,0,0,4.3648,4.3596,4.3615,4.3608,4.3578,4.3598,4.3643,4.3648,4.3663,4.3655,4.3691,4.3719,4.3664,4.3663,4.3617,4.3657,4.3786,4.3592,4.359,4.363,4.3905,4.395,4.3975,4.3746,4.3749,4.3752,4.3907,0,4.38,4.3872,4.3813,4.3897,4.3922,4.3834,4.3873,4.3859,4.3829,4.3847,4.3814,4.3836,4.3761,4.376,4.3796,4.3763,4.384,4.375,4.378,4.3782,4.3788,4.4001,4.4049,4.4196,4.3925,4.3929,4.3931,0,4.3987,4.3988,4.4074,4.4039,4.4047,4.4083,4.4083,4.4101,4.4085,4.406,4.406,4.4003,4.4046,4.3961,4.4019,4.396,4.3968,4.3954,4.3958,4.3959,4.3865,4.4008,4.4241,4.4263,4.3961,4.3958,4.3956,0,4.4158,4.418,4.4234,4.4231,4.4191,4.4219,4.4204,4.4183,4.419,4.4191,4.4195,4.4201,4.4205,4.4212,4.4159,4.4101,4.4225,4.4135,4.4206,4.4208,4.4236,4.4235,4.4475,4.4242,4.4241,4.4241,4.4241,0,4.4334,4.4391,4.4311,4.4345,4.4406,4.4338,4.44,4.4376,4.4358,4.4387,4.4311,4.434,4.4267,4.4289,4.4248,4.4303,4.4305,4.4288,4.4276,4.4295,4.4297,4.4299,4.4288,4.4247,4.4246,4.4244,4.4243,0,4.4535,4.4484,4.4537,4.4495,4.4486,4.4534,4.4498,4.4528,4.4494,4.4531,4.4536,4.4482,4.4503,4.4451,4.4465,4.4437,4.4517,4.4489,4.4522,4.4514,4.4589,4.4583,4.4838,4.4869,4.4617,4.4619,4.4621,0,4.4651,4.4692,4.4655,4.4668,4.4657,4.468,4.4686,4.4622,4.4633,4.4617,4.465,4.4665,4.4674,4.4713,4.4676,4.4686,4.4658,4.4747,4.4659,4.4677,4.4661,4.4659,4.4664,4.4765,4.4769,4.4771,4.4773,0,4.4862,4.4835,4.4848,4.4853,4.4863,4.4864,4.4859,4.4874,4.4805,4.4822,4.4842,4.4849,4.4864,4.488,4.4883,4.4868,4.4811,4.4801,4.4818,4.4838,4.4856,4.4848,4.4572,4.4795,4.4793,4.4792,4.479,4.4789,4.5024,4.5058,4.5037,4.5054,4.5044,4.5042,4.5068,4.5037,4.5053,4.5059,4.502,4.505,4.5034,4.5031,4.5023,4.5046,4.5006,4.5031,4.5037,4.5045,4.5057,4.4852,4.5046,4.5046,4.5045,4.5044,4.5044,0,4.5233,4.5215,4.5232,4.5228,4.5242,4.5185,4.5177,4.5193,4.522,4.5209,4.522,4.5245,4.5261,4.5225,4.5236,4.5262,4.5236,4.5267,4.5265,4.5263,4.5092,4.5076,4.5288,4.5288,4.5288,4.5288,4.5288,4.5288,4.5343,4.5396,4.5367,4.5416,4.5397,4.5426,4.5426,4.5425,4.5416,4.5447,4.546,4.5436,4.5416,4.5425,4.5438,4.5427,4.5435,4.5477,4.5457,4.5298,4.5275,4.5252,4.5237,4.5479,4.5479,4.5625,4.5627,4.5628]}]]